PROFILE

 METAR AND TAF INFORMATION
ADDS - METARS form results

(0545 UTC 22 September 2019)
http://aviationweather.gov/metar/data/
 
EGLL 220520Z AUTO 11001KT 9999 //////CB 18/14 Q1003 NOSIG
EGLL 220450Z AUTO 13005KT 9999 -RA //////CB 18/14 Q1003 TEMPO SHRA
TAF EGLL 220501Z 2206/2312 13008KT 9999 SCT040 TEMPO 2206/2213 7000 SHRA PROB30 TEMPO 2209/2213 4000 +SHRA BKN014CB BECMG 2210/2213 20010KT PROB40 TEMPO 2301/2307 BKN010 BECMG 2303/2306 26007KT BECMG 2309/2312 20012KT 

 AIRPORT MAP

 RUNWAY INFORMATION
Runway 09L Runway length 12799 ft Runway width 164 ft
Runway elevation 79 ft Runway displaced threshold 1007 ft Runway heading 90
Runway 27R Runway length 12799 ft Runway width 164 ft
Runway elevation 78 ft Runway displaced threshold 0 ft Runway heading 270
Runway 09R Runway length 12001 ft Runway width 148 ft
Runway elevation 75 ft Runway displaced threshold 1013 ft Runway heading 90
Runway 27L Runway length 12001 ft Runway width 148 ft
Runway elevation 77 ft Runway displaced threshold 0 ft Runway heading 270

 AIRPORT FREQUENCIES
Type APP Name APP Frequency 119.725 MHZ
Type ATIS Name ATIS Frequency 128.075 MHZ
Type CLD Name CLNC DEL Frequency 121.975 MHZ
Type GND Name GND Frequency 121.7 MHZ
Type TWR Name TWR Frequency 118.475 MHZ

 AIRPORT NEAR NAVIGATION AIDS
Type VOR-DME Name London Frequency 113600 KHZ